Time,TemperatureF,DewpointF,PressureIn,WindDirection,WindDirectionDegrees,WindSpeedMPH,WindSpeedGustMPH,Humidity,HourlyPrecipIn,Conditions,Clouds,dailyrainin,SoftwareType,DateUTC
2013-06-08 00:07:00,55.7,52.0,29.75,SSW,213,0.0,-999.0,88,-99.99,,,0.00,weatherlink.com 1.10,2013-06-08 07:07:00,
2013-06-08 00:22:00,55.6,52.0,29.75,SSW,213,0.0,-999.0,88,-99.99,,,0.00,weatherlink.com 1.10,2013-06-08 07:22:00,
2013-06-08 00:37:00,55.6,52.0,29.74,SSW,213,0.0,-999.0,88,-99.99,,,0.00,weatherlink.com 1.10,2013-06-08 07:37:00,
2013-06-08 00:52:00,55.3,52.0,29.74,SSW,213,0.0,-999.0,88,-99.99,,,0.00,weatherlink.com 1.10,2013-06-08 07:52:00,
2013-06-08 01:07:00,55.3,52.0,29.75,SSW,213,0.0,-999.0,89,-99.99,,,0.00,weatherlink.com 1.10,2013-06-08 08:07:00,
2013-06-08 01:22:00,55.1,52.0,29.74,SSW,213,0.0,-999.0,89,-99.99,,,0.00,weatherlink.com 1.10,2013-06-08 08:22:00,
2013-06-08 01:37:00,55.1,52.0,29.75,SSW,213,0.0,-999.0,89,-99.99,,,0.00,weatherlink.com 1.10,2013-06-08 08:37:00,
2013-06-08 01:52:00,55.0,52.0,29.74,SSW,213,0.0,-999.0,89,-99.99,,,0.00,weatherlink.com 1.10,2013-06-08 08:52:00,
2013-06-08 02:07:00,54.8,51.0,29.74,SSW,213,0.0,-999.0,88,-99.99,,,0.00,weatherlink.com 1.10,2013-06-08 09:07:00,
2013-06-08 02:22:00,54.7,51.0,29.74,SSW,213,0.0,-999.0,88,-99.99,,,0.00,weatherlink.com 1.10,2013-06-08 09:22:00,
2013-06-08 02:37:00,54.4,51.0,29.74,SSW,213,0.0,-999.0,88,-99.99,,,0.00,weatherlink.com 1.10,2013-06-08 09:37:00,
2013-06-08 02:52:00,54.1,51.0,29.74,SSW,213,0.0,-999.0,88,-99.99,,,0.00,weatherlink.com 1.10,2013-06-08 09:52:00,
2013-06-08 03:07:00,54.2,51.0,29.75,SSW,213,0.0,-999.0,89,-99.99,,,0.00,weatherlink.com 1.10,2013-06-08 10:07:00,
2013-06-08 03:22:00,54.2,51.0,29.74,SSW,213,0.0,-999.0,89,-99.99,,,0.00,weatherlink.com 1.10,2013-06-08 10:22:00,
2013-06-08 03:37:00,54.4,51.0,29.74,SSW,213,0.0,-999.0,89,-99.99,,,0.00,weatherlink.com 1.10,2013-06-08 10:37:00,
2013-06-08 03:52:00,54.4,51.0,29.74,SSW,213,0.0,-999.0,89,-99.99,,,0.00,weatherlink.com 1.10,2013-06-08 10:52:00,
2013-06-08 04:07:00,54.2,51.0,29.74,SSW,213,0.0,-999.0,89,-99.99,,,0.00,weatherlink.com 1.10,2013-06-08 11:07:00,
2013-06-08 04:22:00,54.1,51.0,29.74,SSW,213,0.0,-999.0,90,-99.99,,,0.00,weatherlink.com 1.10,2013-06-08 11:22:00,
2013-06-08 04:37:00,54.1,51.0,29.74,SSW,213,0.0,-999.0,90,-99.99,,,0.00,weatherlink.com 1.10,2013-06-08 11:37:00,
2013-06-08 04:52:00,53.8,51.0,29.73,SSW,213,0.0,-999.0,91,-99.99,,,0.00,weatherlink.com 1.10,2013-06-08 11:52:00,
2013-06-08 05:07:00,53.9,51.0,29.73,SSW,213,0.0,-999.0,91,-99.99,,,0.00,weatherlink.com 1.10,2013-06-08 12:07:00,
2013-06-08 05:22:00,53.8,51.0,29.74,SSW,213,0.0,-999.0,91,-99.99,,,0.00,weatherlink.com 1.10,2013-06-08 12:22:00,
2013-06-08 05:37:00,53.8,51.0,29.74,SSW,213,0.0,-999.0,91,-99.99,,,0.00,weatherlink.com 1.10,2013-06-08 12:37:00,
2013-06-08 05:52:00,53.8,52.0,29.74,SSW,213,0.0,-999.0,92,-99.99,,,0.00,weatherlink.com 1.10,2013-06-08 12:52:00,
2013-06-08 06:07:00,53.8,52.0,29.74,SSW,213,0.0,-999.0,92,-99.99,,,0.00,weatherlink.com 1.10,2013-06-08 13:07:00,
2013-06-08 06:22:00,53.9,52.0,29.74,SSW,213,0.0,-999.0,92,-99.99,,,0.00,weatherlink.com 1.10,2013-06-08 13:22:00,
2013-06-08 06:37:00,54.2,52.0,29.75,SSW,213,0.0,-999.0,92,-99.99,,,0.00,weatherlink.com 1.10,2013-06-08 13:37:00,
2013-06-08 06:52:00,54.5,53.0,29.75,SSW,213,0.0,-999.0,93,-99.99,,,0.00,weatherlink.com 1.10,2013-06-08 13:52:00,
2013-06-08 07:07:00,55.0,53.0,29.75,SW,234,0.0,-999.0,93,-99.99,,,0.00,weatherlink.com 1.10,2013-06-08 14:07:00,
2013-06-08 07:22:00,55.1,53.0,29.76,SW,234,0.0,-999.0,93,-99.99,,,0.00,weatherlink.com 1.10,2013-06-08 14:22:00,
2013-06-08 07:37:00,55.6,54.0,29.75,SW,234,0.0,-999.0,93,-99.99,,,0.00,weatherlink.com 1.10,2013-06-08 14:37:00,
2013-06-08 07:52:00,56.6,54.0,29.75,SW,234,0.0,-999.0,92,-99.99,,,0.00,weatherlink.com 1.10,2013-06-08 14:52:00,
2013-06-08 08:07:00,58.0,55.0,29.75,SW,234,0.0,-999.0,90,-99.99,,,0.00,weatherlink.com 1.10,2013-06-08 15:07:00,
2013-06-08 08:22:00,59.5,55.0,29.76,SW,234,0.0,-999.0,85,-99.99,,,0.00,weatherlink.com 1.10,2013-06-08 15:22:00,
2013-06-08 08:37:00,60.7,55.0,29.76,SW,233,0.0,-999.0,80,-99.99,,,0.00,weatherlink.com 1.10,2013-06-08 15:37:00,
2013-06-08 08:53:00,61.0,54.0,29.76,WSW,244,0.0,-999.0,78,-99.99,,,0.00,weatherlink.com 1.10,2013-06-08 15:53:00,
2013-06-08 09:08:00,61.6,54.0,29.76,WSW,244,2.0,-999.0,76,-99.99,,,0.00,weatherlink.com 1.10,2013-06-08 16:08:00,
2013-06-08 09:23:00,62.4,54.0,29.75,SW,214,0.0,-999.0,74,-99.99,,,0.00,weatherlink.com 1.10,2013-06-08 16:23:00,
2013-06-08 09:38:00,64.0,55.0,29.76,WSW,253,2.0,-999.0,72,-99.99,,,0.00,weatherlink.com 1.10,2013-06-08 16:38:00,
2013-06-08 09:53:00,64.5,54.0,29.75,WNW,286,0.0,-999.0,69,-99.99,,,0.00,weatherlink.com 1.10,2013-06-08 16:53:00,
2013-06-08 10:08:00,64.5,54.0,29.75,WSW,244,0.0,-999.0,69,-99.99,,,0.00,weatherlink.com 1.10,2013-06-08 17:08:00,
2013-06-08 10:23:00,64.8,54.0,29.75,WSW,239,0.0,-999.0,68,-99.99,,,0.00,weatherlink.com 1.10,2013-06-08 17:23:00,
2013-06-08 10:38:00,66.1,55.0,29.75,WNW,290,0.0,-999.0,68,-99.99,,,0.00,weatherlink.com 1.10,2013-06-08 17:38:00,
2013-06-08 10:53:00,66.9,54.0,29.75,WSW,247,0.0,-999.0,64,-99.99,,,0.00,weatherlink.com 1.10,2013-06-08 17:53:00,
2013-06-08 11:08:00,67.1,55.0,29.75,WSW,240,1.0,-999.0,65,-99.99,,,0.00,weatherlink.com 1.10,2013-06-08 18:08:00,
2013-06-08 11:23:00,67.4,55.0,29.75,WSW,256,0.0,-999.0,64,-99.99,,,0.00,weatherlink.com 1.10,2013-06-08 18:23:00,
2013-06-08 11:38:00,66.4,54.0,29.75,WSW,245,0.0,-999.0,65,-99.99,,,0.00,weatherlink.com 1.10,2013-06-08 18:38:00,
2013-06-08 11:53:00,66.9,54.0,29.76,WSW,244,0.0,-999.0,64,-99.99,,,0.00,weatherlink.com 1.10,2013-06-08 18:53:00,
2013-06-08 12:08:00,67.1,54.0,29.75,SW,235,1.0,-999.0,64,-99.99,,,0.00,weatherlink.com 1.10,2013-06-08 19:08:00,
2013-06-08 12:23:00,67.8,54.0,29.75,SW,236,0.0,-999.0,61,-99.99,,,0.00,weatherlink.com 1.10,2013-06-08 19:23:00,
2013-06-08 12:38:00,66.3,53.0,29.76,SSW,207,0.0,-999.0,63,-99.99,,,0.00,weatherlink.com 1.10,2013-06-08 19:38:00,
2013-06-08 12:53:00,65.5,54.0,29.77,West,270,0.0,-999.0,66,-99.99,,,0.00,weatherlink.com 1.10,2013-06-08 19:53:00,
2013-06-08 13:08:00,66.0,54.0,29.77,West,277,0.0,-999.0,66,-99.99,,,0.00,weatherlink.com 1.10,2013-06-08 20:08:00,
2013-06-08 13:23:00,66.4,54.0,29.76,WSW,242,2.0,-999.0,65,-99.99,,,0.00,weatherlink.com 1.10,2013-06-08 20:23:00,
2013-06-08 13:38:00,67.1,54.0,29.76,WNW,299,1.0,-999.0,63,-99.99,,,0.00,weatherlink.com 1.10,2013-06-08 20:38:00,
2013-06-08 13:53:00,67.1,55.0,29.76,WSW,238,1.0,-999.0,65,-99.99,,,0.00,weatherlink.com 1.10,2013-06-08 20:53:00,
2013-06-08 14:08:00,67.1,54.0,29.76,SSE,154,0.0,-999.0,64,-99.99,,,0.00,weatherlink.com 1.10,2013-06-08 21:08:00,
2013-06-08 14:23:00,66.4,54.0,29.76,WSW,242,0.0,-999.0,64,-99.99,,,0.00,weatherlink.com 1.10,2013-06-08 21:23:00,
2013-06-08 14:38:00,66.3,54.0,29.76,SW,217,2.0,-999.0,65,-99.99,,,0.00,weatherlink.com 1.10,2013-06-08 21:38:00,
2013-06-08 14:53:00,64.7,54.0,29.77,East,97,0.0,-999.0,68,-99.99,,,0.00,weatherlink.com 1.10,2013-06-08 21:53:00,
2013-06-08 15:08:00,65.6,54.0,29.77,WNW,290,0.0,-999.0,67,-99.99,,,0.00,weatherlink.com 1.10,2013-06-08 22:08:00,
2013-06-08 15:23:00,65.6,54.0,29.76,WNW,288,1.0,-999.0,66,-99.99,,,0.00,weatherlink.com 1.10,2013-06-08 22:23:00,
2013-06-08 15:38:00,65.3,54.0,29.77,ENE,74,0.0,-999.0,66,-99.99,,,0.00,weatherlink.com 1.10,2013-06-08 22:38:00,
2013-06-08 15:53:00,65.2,53.0,29.77,SW,221,0.0,-999.0,66,-99.99,,,0.00,weatherlink.com 1.10,2013-06-08 22:53:00,
2013-06-08 16:09:00,64.5,54.0,29.78,SE,132,4.0,-999.0,68,-99.99,,,0.00,weatherlink.com 1.10,2013-06-08 23:09:00,
2013-06-08 16:23:00,64.2,53.0,29.78,SW,219,4.0,-999.0,68,-99.99,,,0.00,weatherlink.com 1.10,2013-06-08 23:23:00,
2013-06-08 16:38:00,64.2,53.0,29.78,NNE,17,1.0,-999.0,68,-99.99,,,0.00,weatherlink.com 1.10,2013-06-08 23:38:00,
2013-06-08 16:53:00,63.4,53.0,29.78,SE,128,1.0,-999.0,70,-99.99,,,0.00,weatherlink.com 1.10,2013-06-08 23:53:00,
2013-06-08 17:08:00,62.3,53.0,29.79,SSE,152,0.0,-999.0,72,-99.99,,,0.00,weatherlink.com 1.10,2013-06-09 00:08:00,
2013-06-08 17:23:00,61.0,54.0,29.79,South,185,0.0,-999.0,77,-99.99,,,0.00,weatherlink.com 1.10,2013-06-09 00:23:00,
2013-06-08 17:38:00,61.3,53.0,29.79,SSE,155,0.0,-999.0,75,-99.99,,,0.00,weatherlink.com 1.10,2013-06-09 00:38:00,
2013-06-08 17:53:00,60.4,54.0,29.79,SSE,154,0.0,-999.0,78,-99.99,,,0.00,weatherlink.com 1.10,2013-06-09 00:53:00,
2013-06-08 18:08:00,60.2,53.0,29.79,NNE,17,2.0,-999.0,78,-99.99,,,0.00,weatherlink.com 1.10,2013-06-09 01:08:00,
2013-06-08 18:23:00,59.8,53.0,29.78,South,188,0.0,-999.0,79,-99.99,,,0.00,weatherlink.com 1.10,2013-06-09 01:23:00,
2013-06-08 18:38:00,59.5,54.0,29.78,WSW,238,2.0,-999.0,81,-99.99,,,0.00,weatherlink.com 1.10,2013-06-09 01:38:00,
2013-06-08 18:53:00,59.3,54.0,29.79,WNW,289,0.0,-999.0,82,-99.99,,,0.00,weatherlink.com 1.10,2013-06-09 01:53:00,
2013-06-08 19:08:00,58.9,53.0,29.79,SW,227,0.0,-999.0,82,-99.99,,,0.00,weatherlink.com 1.10,2013-06-09 02:08:00,
2013-06-08 19:23:00,58.3,54.0,29.79,West,267,0.0,-999.0,84,-99.99,,,0.00,weatherlink.com 1.10,2013-06-09 02:23:00,
2013-06-08 19:38:00,58.1,54.0,29.79,WNW,294,1.0,-999.0,85,-99.99,,,0.00,weatherlink.com 1.10,2013-06-09 02:38:00,
2013-06-08 19:53:00,58.0,54.0,29.79,West,279,0.0,-999.0,86,-99.99,,,0.00,weatherlink.com 1.10,2013-06-09 02:53:00,
2013-06-08 20:08:00,58.0,54.0,29.79,WSW,247,0.0,-999.0,87,-99.99,,,0.00,weatherlink.com 1.10,2013-06-09 03:08:00,
2013-06-08 20:23:00,58.1,54.0,29.79,SW,233,1.0,-999.0,87,-99.99,,,0.00,weatherlink.com 1.10,2013-06-09 03:23:00,
2013-06-08 20:38:00,58.0,54.0,29.79,WSW,255,0.0,-999.0,87,-99.99,,,0.00,weatherlink.com 1.10,2013-06-09 03:38:00,
2013-06-08 20:53:00,57.6,54.0,29.79,WSW,240,0.0,-999.0,87,-99.99,,,0.00,weatherlink.com 1.10,2013-06-09 03:53:00,
2013-06-08 21:08:00,57.5,54.0,29.79,South,184,0.0,-999.0,88,-99.99,,,0.00,weatherlink.com 1.10,2013-06-09 04:08:00,
2013-06-08 21:23:00,57.3,54.0,29.81,West,273,0.0,-999.0,88,-99.99,,,0.00,weatherlink.com 1.10,2013-06-09 04:23:00,
2013-06-08 21:38:00,57.3,54.0,29.81,ESE,104,1.0,-999.0,89,-99.99,,,0.00,weatherlink.com 1.10,2013-06-09 04:38:00,
2013-06-08 21:54:00,57.2,54.0,29.82,NNE,32,0.0,-999.0,89,-99.99,,,0.00,weatherlink.com 1.10,2013-06-09 04:54:00,
2013-06-08 22:09:00,57.2,54.0,29.82,WSW,239,0.0,-999.0,89,-99.99,,,0.00,weatherlink.com 1.10,2013-06-09 05:09:00,
2013-06-08 22:24:00,57.2,54.0,29.82,West,280,0.0,-999.0,90,-99.99,,,0.00,weatherlink.com 1.10,2013-06-09 05:24:00,
2013-06-08 22:39:00,57.0,54.0,29.82,WNW,284,0.0,-999.0,90,-99.99,,,0.00,weatherlink.com 1.10,2013-06-09 05:39:00,
2013-06-08 22:54:00,57.0,54.0,29.82,ENE,57,0.0,-999.0,90,-99.99,,,0.00,weatherlink.com 1.10,2013-06-09 05:54:00,
2013-06-08 23:09:00,56.9,54.0,29.83,SSW,213,0.0,-999.0,90,-99.99,,,0.00,weatherlink.com 1.10,2013-06-09 06:09:00,
2013-06-08 23:24:00,56.9,54.0,29.83,South,178,0.0,-999.0,90,-99.99,,,0.00,weatherlink.com 1.10,2013-06-09 06:24:00,
2013-06-08 23:39:00,56.9,54.0,29.82,WSW,258,0.0,-999.0,91,-99.99,,,0.00,weatherlink.com 1.10,2013-06-09 06:39:00,
2013-06-08 23:54:00,56.7,54.0,29.82,West,265,0.0,-999.0,91,-99.99,,,0.00,weatherlink.com 1.10,2013-06-09 06:54:00,